Location: Bílinka
(49.3579°N, 14.3767°E)
Time: 21:50:47
(UTC+00:00)

SL-08 R/B - Pass Details

Date: 28 January 2023
Orbit: 672 x 737 km, 98.5° (Epoch: 29 March)

Event Time Altitude Azimuth Distance (km) Brightness Sun altitude
Rises 17:17:08 0° 10° (N) 3,159 6.5 -13.9°
Reaches altitude 10° 17:19:27 10° 6° (N) 2,240 5.7 -14.3°
Maximum altitude 17:24:14 53° 291° (WNW) 908 4.2 -15.1°
Drops below altitude 10° 17:29:01 10° 216° (SW) 2,242 6.6 -15.8°
Sets 17:31:20 0° 211° (SSW) 3,162 7.3 -16.2°
